This demonstration page uses our WeatherBlox Daily Observations layout. Learn more.

Hourly Observations for December 18, 2019

Temp ( °F °C ) Dew Point ( °F °C ) Humidity (%) Winds ( mph kmh ) Pressure ( in mb ) Visibility ( mi km ) Precip ( " mm )
12:15 am 00:15 Cloudy 34 1 28 -2 81 81 NNW 14 22 29.94 1014 10 16.0934 0 0
12:35 am 00:35 Cloudy 34 1 28 -2 81 81 N 13 20 29.94 1014 10 16.0934 0 0
12:55 am 00:55 Cloudy 34 1 28 -2 81 81 N 13 20 29.94 1014 10 16.0934 0 0
1:35 am 01:35 Cloudy 34 1 27 -3 75 75 NNW 15 24 29.95 1014 10 16.0934 0 0
1:55 am 01:55 Cloudy 34 1 27 -3 75 75 NW 15 24 29.95 1014 10 16.0934 0 0
2:15 am 02:15 Cloudy 34 1 27 -3 75 75 NNW 10 17 29.97 1015 10 16.0934 0 0
2:35 am 02:35 Mostly Cloudy 32 0 27 -3 80 80 NNW 14 22 29.99 1016 10 16.0934 0 0
2:55 am 02:55 Partly Cloudy 32 0 23 -5 69 69 NNW 12 19 29.99 1016 10 16.0934 0 0
3:15 am 03:15 Clear 32 0 23 -5 69 69 NNW 12 19 30 1016 10 16.0934 0 0
3:35 am 03:35 Clear 32 0 23 -5 69 69 NNW 5 7 30 1016 10 16.0934 0 0
3:55 am 03:55 Clear 30 -1 23 -5 75 75 NW 3 6 30 1016 10 16.0934 0 0
4:15 am 04:15 Clear 30 -1 23 -5 75 75 NNW 3 6 30.01 1016 10 16.0934 0 0
4:35 am 04:35 Clear 30 -1 23 -5 75 75 Calm 30 1016 10 16.0934 0 0
4:55 am 04:55 Clear 28 -2 23 -5 80 80 NW 6 9 30.01 1016 10 16.0934 0 0
5:15 am 05:15 Clear 30 -1 23 -5 75 75 NNW 6 9 30.01 1016 10 16.0934 0 0
5:35 am 05:35 Clear 28 -2 21 -6 74 74 WNW 5 7 30.02 1016 10 16.0934 0 0
5:55 am 05:55 Clear 28 -2 23 -5 80 80 W 3 6 30.02 1016 10 16.0934 0 0
6:15 am 06:15 Clear 28 -2 23 -5 80 80 Calm 30.03 1017 10 16.0934 0 0
6:35 am 06:35 Clear 30 -1 23 -5 75 75 W 5 7 30.02 1017 10 16.0934 0 0
6:55 am 06:55 Clear 28 -2 21 -6 74 74 W 3 6 30.03 1017 10 16.0934 0 0
7:15 am 07:15 Clear 28 -2 23 -5 80 80 Calm 30.03 1017 10 16.0934 0 0
7:35 am 07:35 Sunny 28 -2 21 -6 74 74 Calm 30.03 1017 10 16.0934 0 0
7:55 am 07:55 Sunny 28 -2 21 -6 74 74 Calm 30.03 1017 10 16.0934 0 0
8:15 am 08:15 Sunny 28 -2 23 -5 80 80 SW 5 7 30.03 1017 10 16.0934 0 0
8:35 am 08:35 Sunny 30 -1 23 -5 75 75 SSW 5 7 30.02 1017 10 16.0934 0 0
8:55 am 08:55 Sunny 32 0 23 -5 69 69 SSW 6 9 30.02 1017 10 16.0934 0 0
9:15 am 09:15 Sunny 32 0 23 -5 69 69 SW 6 9 30.02 1017 10 16.0934 0 0
9:35 am 09:35 Sunny 34 1 23 -5 65 65 WSW 6 9 30.03 1017 10 16.0934 0 0
9:55 am 09:55 Sunny 34 1 23 -5 65 65 WSW 3 6 30.03 1017 10 16.0934 0 0
10:15 am 10:15 Sunny 36 2 21 -6 56 56 W 12 19 30.04 1017 10 16.0934 0 0
10:35 am 10:35 Sunny 36 2 21 -6 56 56 WNW 8 13 30.04 1017 10 16.0934 0 0
10:55 am 10:55 Mostly Cloudy 37 3 21 -6 52 52 WNW 16 26 30.03 1017 10 16.0934 0 0
11:15 am 11:15 Cloudy 37 3 21 -6 52 52 NNW 14 22 30.02 1016 10 16.0934 0 0
11:35 am 11:35 Cloudy 37 3 23 -5 56 56 NW 14 22 30.02 1016 10 16.0934 0 0
11:55 am 11:55 Partly Cloudy 37 3 23 -5 56 56 NW 20 31 30.02 1016 10 16.0934 0 0
12:15 pm 12:15 Mostly Cloudy 36 2 23 -5 60 60 NW 20 31 30.02 1017 10 16.0934 0 0
12:35 pm 12:35 Cloudy 36 2 21 -6 56 56 WNW 23 37 30.02 1017 10 16.0934 0 0
12:55 pm 12:55 Mostly Cloudy 36 2 23 -5 60 60 NW 24 39 30.02 1017 10 16.0934 0 0
1:15 pm 13:15 Partly Cloudy 36 2 21 -6 56 56 NW 20 31 30.02 1017 10 16.0934 0 0
1:35 pm 13:35 Partly Cloudy 36 2 21 -6 56 56 NW 16 26 30.02 1017 10 16.0934 0 0
1:55 pm 13:55 Mostly Cloudy 36 2 23 -5 60 60 WNW 17 28 30.02 1017 10 16.0934 0 0
2:15 pm 14:15 Mostly Cloudy 36 2 21 -6 56 56 NNW 14 22 30.02 1017 10 16.0934 0 0
2:35 pm 14:35 Mostly Cloudy 36 2 21 -6 56 56 NNW 18 30 30.02 1017 10 16.0934 0 0
2:55 pm 14:55 Mostly Cloudy 36 2 21 -6 56 56 NW 20 31 30.03 1017 10 16.0934 0 0
3:15 pm 15:15 Mostly Cloudy 34 1 21 -6 60 60 NNW 14 22 30.04 1017 10 16.0934 0 0
3:35 pm 15:35 Partly Cloudy 34 1 19 -7 56 56 NW 23 37 30.05 1018 10 16.0934 0 0
3:55 pm 15:55 Partly Cloudy 32 0 19 -7 60 60 NW 15 24 30.07 1018 10 16.0934 0 0
4:15 pm 16:15 Mostly Cloudy 32 0 18 -8 55 55 NW 25 41 30.07 1018 10 16.0934 0 0
4:35 pm 16:35 Partly Cloudy 32 0 18 -8 55 55 NW 24 39 30.08 1019 10 16.0934 0 0
4:55 pm 16:55 Clear 32 0 18 -8 55 55 NNW 18 30 30.09 1019 10 16.0934 0 0
5:15 pm 17:15 Partly Cloudy 32 0 18 -8 55 55 NW 15 24 30.1 1019 10 16.0934 0 0
5:35 pm 17:35 Partly Cloudy 30 -1 18 -8 59 59 WNW 13 20 30.1 1019 10 16.0934 0 0
5:55 pm 17:55 Partly Cloudy 30 -1 18 -8 59 59 W 12 19 30.11 1020 10 16.0934 0 0
6:15 pm 18:15 Partly Cloudy 30 -1 16 -9 55 55 WNW 14 22 30.12 1020 10 16.0934 0 0
6:55 pm 18:55 Mostly Cloudy 30 -1 14 -10 51 51 WNW 10 17 30.13 1020 10 16.0934 0 0
7:15 pm 19:15 Cloudy 32 0 14 -10 47 47 WNW 16 26 30.13 1020 10 16.0934 0 0
7:35 pm 19:35 Cloudy 32 0 16 -9 51 51 WNW 20 31 30.13 1020 10 16.0934 0 0
7:55 pm 19:55 Mostly Cloudy 32 0 16 -9 51 51 WNW 20 31 30.14 1021 10 16.0934 0 0
8:15 pm 20:15 Mostly Cloudy 30 -1 18 -8 59 59 WNW 21 33 30.15 1021 10 16.0934 0 0
8:35 pm 20:35 Mostly Cloudy 30 -1 18 -8 59 59 NW 20 31 30.15 1021 10 16.0934 0 0
8:55 pm 20:55 Cloudy 32 0 18 -8 55 55 NW 21 33 30.16 1021 10 16.0934 0 0
9:15 pm 21:15 Cloudy 30 -1 21 -6 69 69 NNW 22 35 30.18 1022 10 16.0934 0 0
9:35 pm 21:35 Mostly Cloudy 30 -1 21 -6 69 69 NNW 22 35 30.19 1022 10 16.0934 0 0
9:55 pm 21:55 Mostly Cloudy 30 -1 16 -9 55 55 NNW 23 37 30.2 1023 10 16.0934 0 0
10:15 pm 22:15 Cloudy 28 -2 14 -10 55 55 N 15 24 30.23 1024 10 16.0934 0 0
10:35 pm 22:35 Cloudy 27 -3 12 -11 54 54 N 12 19 30.25 1024 10 16.0934 0 0
10:55 pm 22:55 Cloudy 27 -3 12 -11 54 54 N 13 20 30.26 1025 10 16.0934 0 0
11:15 pm 23:15 Cloudy 27 -3 12 -11 54 54 N 13 20 30.28 1025 10 16.0934 0 0
11:35 pm 23:35 Cloudy 27 -3 10 -12 50 50 N 10 17 30.28 1025 10 16.0934 0 0
11:55 pm 23:55 Cloudy 27 -3 10 -12 50 50 NNW 9 15 30.29 1026 10 16.0934 0 0

Powered by AerisWeather